Flag for U.S.A. Weather past 2 weeks in Pensacola, Florida, U.S.A.

Now
73 °F

Partly sunny.


Feels Like: 77 °F
Forecast: 52 / 67 °F
Wind: 8 mph from Northeast

Location: Pensacola Regional Airport


UV Index: 0 (Low)

Visibility: 10 mi


Pressure: 30.19 "Hg

Humidity: 48%

Dew point: 52 °F

Location of PensacolaLocation

Historic Weather in Pensacola

°F

Pensacola temperature yesterday

Maximum temperature yesterday: 67 °F (at 3:53 PM)
Minimum temperature yesterday: 42 °F (at 5:53 AM)
Average temperature yesterday: 54 °F

Past Weeks' High & Low Weather Summary

 TemperatureHumidityPressure
High78 °F (Apr 4, 12:53 PM)93% (Apr 5, 7:53 PM)30.29 "Hg (Apr 5, 7:53 PM)
Low42 °F (Apr 16, 5:53 AM)23% (Apr 9, 4:53 PM)29.67 "Hg (Apr 7, 3:53 PM)
Average65 °F73%30.03 "Hg
* Reported Apr 2 1:02 PM — Apr 17 12:53 PM, Pensacola, Weather by CustomWeather, © 2014

Note: Actual official high and low records may vary slightly from our data, if they occured in-between our weather recording intervals... More about our weather records

Advertising

Historic Weather Conditions — Data for Previous 24 hours

 ConditionsComfort  
Time TempWeatherWind HumidityBarometerVisibility
12:53 PM
Apr 17
71 °FPassing clouds.8 mph49%30.22 "Hg10 mi
11:53 AM70 °FScattered clouds.8 mph51%30.22 "Hg10 mi
10:53 AM66 °FScattered clouds.8 mph59%30.25 "Hg10 mi
9:53 AM61 °FMostly cloudy.6 mph65%30.26 "Hg10 mi
8:53 AM59 °FScattered clouds.10 mph69%30.24 "Hg10 mi
7:53 AM56 °FCloudy.9 mph75%30.23 "Hg10 mi
6:53 AM56 °FMore clouds than sun.12 mph75%30.21 "Hg10 mi
5:53 AM55 °FMostly cloudy.9 mph77%30.19 "Hg10 mi
5:01 AM55 °FPassing clouds.7 mph77%30.18 "Hg10 mi
4:02 AM56 °FMostly cloudy.9 mph75%30.17 "Hg10 mi
3:53 AM56 °FPartly cloudy.8 mph75%30.17 "Hg10 mi
2:53 AM57 °FPassing clouds.10 mph69%30.16 "Hg10 mi
1:53 AM57 °FPassing clouds.8 mph67%30.17 "Hg10 mi
12:53 AM56 °FClear.8 mph65%30.17 "Hg10 mi
11:53 PM
Apr 16
55 °FClear.5 mph74%30.18 "Hg10 mi
10:53 PM55 °FClear.3 mph77%30.18 "Hg10 mi
9:53 PM54 °FClear.5 mph72%30.18 "Hg10 mi
8:53 PM53 °FClear.No wind74%30.16 "Hg10 mi
7:53 PM57 °FClear.No wind64%30.16 "Hg10 mi
6:53 PM60 °FSunny.9 mph56%30.15 "Hg10 mi
5:53 PM63 °FSunny.9 mph48%30.13 "Hg10 mi
4:53 PM66 °FSunny.9 mph37%30.13 "Hg10 mi
3:53 PM67 °FSunny.No wind31%30.13 "Hg10 mi
2:53 PM66 °FSunny.5 mph33%30.15 "Hg10 mi
Weather by CustomWeather, © 2014

See weather overview